TimePST,TemperatureF,Dew PointF,Humidity,Sea Level PressureIn,VisibilityMPH,Wind Direction,Wind SpeedMPH,Gust SpeedMPH,PrecipitationIn,Events,Conditions,WindDirDegrees,DateUTC
12:56 AM,43.0,23.0,45,30.00,10.0,NNW,3.5,-,N/A,,Overcast,340,2013-02-11 08:56:00
1:56 AM,43.0,24.1,47,30.01,10.0,East,3.5,-,N/A,,Overcast,100,2013-02-11 09:56:00
2:56 AM,41.0,21.9,47,30.01,10.0,ENE,5.8,-,N/A,,Scattered Clouds,60,2013-02-11 10:56:00
3:56 AM,41.0,17.6,39,30.02,10.0,North,6.9,-,N/A,,Partly Cloudy,10,2013-02-11 11:56:00
4:56 AM,41.0,15.1,35,30.02,10.0,NNW,11.5,-,N/A,,Partly Cloudy,340,2013-02-11 12:56:00
5:56 AM,39.9,15.1,36,30.04,10.0,NNW,9.2,17.3,N/A,,Scattered Clouds,330,2013-02-11 13:56:00
6:56 AM,39.9,14.0,35,30.06,10.0,NNW,13.8,23.0,N/A,,Partly Cloudy,330,2013-02-11 14:56:00
7:56 AM,42.1,12.9,31,30.09,10.0,North,12.7,20.7,N/A,,Partly Cloudy,350,2013-02-11 15:56:00
8:56 AM,44.1,12.0,27,30.11,10.0,NNW,6.9,17.3,N/A,,Clear,340,2013-02-11 16:56:00
9:56 AM,45.0,10.0,24,30.12,10.0,North,11.5,-,N/A,,Clear,10,2013-02-11 17:56:00
10:56 AM,46.0,10.0,23,30.12,10.0,Variable,3.5,16.1,N/A,,Clear,0,2013-02-11 18:56:00
11:56 AM,48.0,9.0,21,30.10,10.0,Variable,3.5,-,N/A,,Clear,0,2013-02-11 19:56:00
12:56 PM,48.9,8.1,19,30.09,10.0,NNW,4.6,21.9,N/A,,Partly Cloudy,340,2013-02-11 20:56:00
1:56 PM,51.1,7.0,17,30.08,10.0,NW,13.8,18.4,N/A,,Partly Cloudy,310,2013-02-11 21:56:00
2:56 PM,51.1,6.1,16,30.08,10.0,Variable,3.5,-,N/A,,Partly Cloudy,0,2013-02-11 22:56:00
3:56 PM,51.1,5.0,15,30.09,10.0,NNW,15.0,18.4,N/A,,Partly Cloudy,340,2013-02-11 23:56:00
4:56 PM,50.0,3.9,15,30.09,10.0,NNW,8.1,-,N/A,,Partly Cloudy,330,2013-02-12 00:56:00
5:56 PM,48.9,3.9,16,30.11,10.0,NW,8.1,-,N/A,,Clear,310,2013-02-12 01:56:00
6:56 PM,48.0,3.9,16,30.13,10.0,Calm,Calm,-,N/A,,Clear,0,2013-02-12 02:56:00
7:56 PM,46.9,5.0,18,30.14,10.0,WNW,6.9,-,N/A,,Clear,300,2013-02-12 03:56:00
8:56 PM,46.9,3.9,17,30.16,10.0,Variable,3.5,-,N/A,,Clear,0,2013-02-12 04:56:00
9:56 PM,44.1,3.9,19,30.18,10.0,Calm,Calm,-,N/A,,Clear,0,2013-02-12 05:56:00
10:56 PM,43.0,12.0,28,30.20,10.0,ENE,5.8,-,N/A,,Clear,60,2013-02-12 06:56:00
11:56 PM,41.0,12.9,32,30.21,10.0,Calm,Calm,-,N/A,,Clear,0,2013-02-12 07:56:00